DELTA 1 DEB, 7071

Orbit data source: Space-Track

DELTA 1 DEB, 7071 is space debris in SSO originally from a launch on Tue, 06 Nov 1973 UTC launched from the Air Force Western Test Range (AFWTR). Debris objects in space refer to the collection of defunct objects orbiting the Earth. Examples of debris include non-operational satellites, rocket bodies, and fragments generated from explosions, collisions, or faulty payload assembly.

Loading next visibility...
Identifier
7071, 1973-086BP
Orbit
SSO
Country
Flag of USUS
Related business
Manufacturer
Unknown
Mission
Spacecraft
Bus & Motor
Unknown
Mass
Unknown
Launch date (UTC)
1973-11-06 (52 years ago)
Launch vehicle
Unknown
Launch site
Air Force Western Test Range (AFWTR)
Object type
Payload
Rocket body
Debris
Shape & HBR
Unknown shape, 0.4 m
Radar Cross Section
Medium (>0.1 m² and <1 m²)

Expand to show TLE details & history
Last TLE update: 5 hours ago

TLE from 5 hours ago
0 DELTA 1 DEB
1  7071U 73086BP  26034.51154814 -.00000030  00000-0  92508-4 0  9995
2  7071 101.6129  22.5805 0006533 349.5938 129.8360 12.41162594366534
Epoch: 2026-02-03T12:16Z
TLE epoch observation values (Epoch: 2026-02-03T12:16:37.759Z)
Latitude
58.59261°
Longitude
-95.69995°
Altitude
1,514.691 km
Speed
7.112 km/s
True Right ascension
14h 48m 35s
True Declination
58° 27' 15"
Sunlit
Object was in daylight at epoch
Visualization orbit readout
Latitude
Unknown
Longitude
Unknown
Altitude
Unknown
Speed
Unknown
Apparent Right ascension
Unknown
Apparent Declination
Unknown
Sunlit
N/A
Visualization observer readout
Local Sidereal Time
19:37:02
Azimuth
Unknown
Elevation
Unknown
Doppler factor
Unknown
Orbital elements
Apogee altitude
1,504.375 km
Perigee altitude
1,494.083 km
Semi-major axis
7,877.366 km
Eccentricity
0.00065
Inclination
101.6129°
RAAN
22.5805°
Arg. of periapsis
349.5938°
True anomaly
129.89346°
Mean anomaly
129.836°
Eccentric anomaly
129.86473°
Mean motion
3.10436 °/min
Orbital period
115.97 mins
BSTAR
0.000092508
Loading maneuver chart data...
Computing Atmospheric mass density...

Documentation

Showing up to 5 results
|